Location: Bergheim
(50.9593°N, 6.6400°E)
Time: 11:04:14
(UTC+02:00)

ISS - Pass Details

Date: 19 May 2021
Orbit: 417 x 422 km, 51.6° (Epoch: 13 June)

Event Time Altitude Azimuth Distance (km) Brightness Sun altitude
Rises 02:05:32 0° 285° (WNW) 2,371 0.1 -18.8°
Reaches altitude 10° 02:07:40 10° 280° (W) 1,506 -0.9 -18.8°
Enters shadow 02:09:22 26° 268° (W) 862 -2.3 -18.7°
